カタログに戻る

EUTE 9B

運用中通信GEO
NORAD 41310·PAYLOAD·🇪🇺 EU

打ち上げ Jan 29, 2016 から Baikonur Cosmodrome

Loading…

TLE

最新Source: Space-Track

元期: Sep 14, 2026, 07:00 UTC

1 41310U 16005A   26257.29180439  .00000053  00000-0  00000-0 0  9997
2 41310   0.0566  70.8209 0002427 137.6741 258.8299  1.00273757 39016

AllMySatでEUTE 9Bをリアルタイム追跡

Download on the App Store